This is the latest recevied weather packets stored in our database for station/object AD7ZD. If no packets are shown the sender has not sent any weather packets the latest 10 day(s).
| Time | Temp. | Humidity | Pressure | Rain* | Wind** | Luminosity | Snow |
|---|---|---|---|---|---|---|---|
| 1778072587 | 7.78° C | 86% | 1015.9 hPa | 0 mm | - | 6 W/m² | - |
| 1778072285 | 7.22° C | 87% | 1016 hPa | 0 mm | - | 2 W/m² | - |
| 1778071983 | 7.22° C | 89% | 1016.1 hPa | 0 mm | - | 0 W/m² | - |
| 1778071681 | 6.67° C | 90% | 1016 hPa | 0 mm | - | 0 W/m² | - |
| 1778071378 | 6.67° C | 89% | 1015.7 hPa | 0 mm | - | 0 W/m² | - |
| 1778071075 | 6.67° C | 89% | 1015.8 hPa | 0 mm | - | 0 W/m² | - |
| 1778070774 | 6.11° C | 88% | 1015.3 hPa | 0 mm | - | 0 W/m² | - |
| 1778070470 | 6.11° C | 88% | 1015.5 hPa | 0 mm | - | 0 W/m² | - |
| 1778070167 | 6.67° C | 87% | 1015.5 hPa | 0 mm | - | 0 W/m² | - |
| 1778069866 | 6.67° C | 86% | 1015.2 hPa | 0 mm | - | 0 W/m² | - |
| 1778069562 | 6.67° C | 86% | 1015.2 hPa | 0 mm | - | 0 W/m² | - |
| 1778069259 | 7.22° C | 85% | 1015.1 hPa | 0 mm | - | 0 W/m² | - |
| 1778068958 | 7.78° C | 84% | 1015.1 hPa | 0 mm | - | 0 W/m² | - |
| 1778068655 | 7.78° C | 84% | 1014.9 hPa | 0 mm | - | 0 W/m² | - |
| 1778068353 | 8.33° C | 83% | 1015 hPa | 0 mm | - | 0 W/m² | - |
| 1778068050 | 8.33° C | 84% | 1015 hPa | 0 mm | - | 0 W/m² | - |
| 1778067748 | 8.33° C | 84% | 1015 hPa | 0 mm | - | 0 W/m² | - |
| 1778067446 | 8.33° C | 83% | 1014.7 hPa | 0 mm | - | 0 W/m² | - |
| 1778067143 | 8.33° C | 83% | 1014.7 hPa | 0 mm | - | 0 W/m² | - |
| 1778066839 | 8.33° C | 82% | 1014.9 hPa | 0 mm | - | 0 W/m² | - |
| 1778066537 | 8.89° C | 80% | 1014.7 hPa | 0 mm | - | 0 W/m² | - |
| 1778066234 | 8.89° C | 80% | 1014.5 hPa | 0 mm | - | 0 W/m² | - |
| 1778065933 | 8.33° C | 81% | 1014.5 hPa | 0 mm | - | 0 W/m² | - |
| 1778065629 | 8.89° C | 82% | 1014.6 hPa | 0 mm | - | 0 W/m² | - |
| 1778065327 | 8.33° C | 82% | 1014.6 hPa | 0 mm | - | 0 W/m² | - |
* Rain latest hour (hover to see other rain measurements)
** Current wind speed in m/s (hover to see current wind gust speed)